Weather History for Moline, IL

Change the Weather History Date:

Tuesday, February 12, 2013

  Actual Average Record
Temperature  
Mean Temperature 32 °F 26 °F  
Max Temperature 38 °F 35 °F 67 °F (1938)
Min Temperature 26 °F 17 °F -19 °F (1899)
Degree Days  
Heating Degree Days 33 39  
Month to date heating degree days 446 487  
Since 1 July heating degree days 4018 4221  
Cooling Degree Days 0 0  
Month to date cooling degree days 0 0  
Year to date cooling degree days 0 0  
Moisture  
Dew Point 22 °F    
Average Humidity 70    
Maximum Humidity 85    
Minimum Humidity 54    
Precipitation  
Precipitation 0.00 in 0.06 in 1.12 in (1881)
Month to date precipitation 1.15 0.57  
Year to date precipitation 4.01 2.06  
Snow  
Snow 0.00 in 0.20 in - ()
Month to date snowfall 1.1 3.3  
Since 1 July snowfall 10.7 23.2  
Snow Depth 0.00 in    
Sea Level Pressure  
Sea Level Pressure 30.05 in    
Wind  
Wind Speed 7 mph (West)    
Max Wind Speed 18 mph    
Max Gust Speed 22 mph    
Visibility 10 miles    
Events      
T = Trace of Precipitation, MM = Missing Value Source: NWS Daily Summary

Daily Weather History Graph

Daily Weather History Graph

Search for Another Location

Airport:

Trip Planner

Search our weather history database for the weather conditions in past years. The results will help you decide how hot, cold, wet, or windy it might be!

Date:

Astronomy

Feb. 12, 2013 Rise Set
Actual Time 7:00 AM CST 5:32 PM CST
Civil Twilight 6:32 AM CST 6:00 PM CST
Nautical Twilight 5:59 AM CST 6:33 PM CST
Astronomical Twilight 5:27 AM CST 7:05 PM CST
Moon 7:55 AM CST (2/12) 8:36 PM CST (2/12)
Length of Visible Light 11h 28m
Length of Day
10h 31m
Waxing Crescent, 7% of the Moon is Illuminated
Feb 12
Waxing Crescent
Feb 17
First Quarter
Feb 25
Full
Mar 4
Last Quarter
Mar 11
New

Hourly Weather History & Observations

Time (CST) Temp. Windchill Dew Point Humidity Pressure Visibility Wind Dir Wind Speed Gust Speed Precip Events Conditions
12:52 AM 28.0 °F 17.5 °F 21.0 °F 75% 30.13 in 10.0 mi WNW 12.7 mph - N/A   Overcast
1:52 AM 28.0 °F 18.6 °F 21.0 °F 75% 30.14 in 10.0 mi WNW 10.4 mph - N/A   Overcast
2:52 AM 28.0 °F 18.1 °F 19.9 °F 72% 30.14 in 10.0 mi WNW 11.5 mph 20.7 mph N/A   Overcast
3:52 AM 27.0 °F 17.3 °F 19.9 °F 75% 30.14 in 10.0 mi West 10.4 mph - N/A   Overcast
4:52 AM 28.0 °F 17.5 °F 21.0 °F 75% 30.13 in 10.0 mi WNW 12.7 mph 19.6 mph N/A   Overcast
5:52 AM 27.0 °F 15.6 °F 19.9 °F 75% 30.12 in 10.0 mi WNW 13.8 mph - N/A   Overcast
6:52 AM 27.0 °F 18.7 °F 19.9 °F 75% 30.13 in 10.0 mi WNW 8.1 mph - N/A   Overcast
7:52 AM 27.0 °F 17.3 °F 19.0 °F 72% 30.14 in 10.0 mi WNW 10.4 mph - N/A   Overcast
8:52 AM 27.0 °F 17.3 °F 19.0 °F 72% 30.15 in 10.0 mi NW 10.4 mph - N/A   Overcast
9:52 AM 28.0 °F 20.8 °F 19.0 °F 69% 30.15 in 10.0 mi WNW 6.9 mph - N/A   Overcast
10:52 AM 30.0 °F 21.7 °F 19.9 °F 66% 30.13 in 10.0 mi West 9.2 mph - N/A   Overcast
11:52 AM 33.1 °F 26.9 °F 21.0 °F 61% 30.09 in 10.0 mi WNW 6.9 mph - N/A   Mostly Cloudy
12:52 PM 34.0 °F 28.0 °F 21.9 °F 61% 30.08 in 10.0 mi WNW 6.9 mph - N/A   Scattered Clouds
12:59 PM 35.6 °F 28.6 °F 21.2 °F 56% 30.05 in 10.0 mi West 9.2 mph - N/A   Scattered Clouds
1:52 PM 36.0 °F 30.3 °F 21.9 °F 57% 30.04 in 10.0 mi West 6.9 mph - N/A   Clear
2:52 PM 37.9 °F 33.5 °F 23.0 °F 55% 30.03 in 10.0 mi West 5.8 mph - N/A   Clear
3:52 PM 37.0 °F 30.4 °F 23.0 °F 57% 30.01 in 10.0 mi SSW 9.2 mph - N/A   Clear
4:52 PM 35.1 °F 30.1 °F 23.0 °F 61% 29.99 in 10.0 mi SSW 5.8 mph - N/A   Clear
5:52 PM 32.0 °F 28.7 °F 25.0 °F 75% 29.97 in 10.0 mi SSE 3.5 mph - N/A   Clear
6:52 PM 28.9 °F - 23.0 °F 78% 29.97 in 10.0 mi Calm Calm - N/A   Clear
7:52 PM 28.9 °F - 24.1 °F 82% 29.96 in 10.0 mi Calm Calm - N/A   Clear
8:52 PM 28.9 °F - 23.0 °F 78% 29.95 in 10.0 mi Calm Calm - N/A   Clear
9:52 PM 30.0 °F - 24.1 °F 79% 29.95 in 10.0 mi Calm Calm - N/A   Clear
10:52 PM 30.9 °F 27.5 °F 24.1 °F 76% 29.93 in 10.0 mi SW 3.5 mph - N/A   Clear
11:52 PM 30.9 °F 23.5 °F 25.0 °F 79% 29.91 in 10.0 mi SW 8.1 mph - N/A   Clear